Showing default

RASSVET-3 16, 68375

Orbit data source: Space-Track

RASSVET-3 16, 68375 is a payload satellite owned by Byuro 1440 (CIS) in LEO that was launched on Mon, 23 Mar 2026 UTC via a SOYUZ-2-1B launch vehicle from the Plesetsk Missile And Space Complex (PKMTR). Payload-class satellites include a variety of spacecraft equipped with specific instruments for various scientific and technological missions. These include communications satellites like Starlink; space stations such as the ISS; scientific satellites like the Hubble; Earth observation satellites from companies like Planet Labs, Umbra, and HawkEye 360; GPS; miniature CubeSats for education and research; and military/defense satellites.

Loading next visibility...
Identifier
68375, 2026-061R
Orbit
LEO
Country
Flag of CISCIS
Related business
Manufacturer
Byuro 1440
Mission
Operational spacecraft
Bus & Motor
RASSVET-2, Unknown motor
Mass
~370 kg wet, ~370 kg dry
Launch date (UTC)
2026-03-23 (3 months ago)
Launch vehicle
SOYUZ-2-1B
Launch site
Plesetsk Missile And Space Complex (PKMTR)
Object type
Payload
Rocket body
Debris
Shape & HBR
Unknown shape, 2.1 m
Radar Cross Section
Large (>1 m²)

Expand to show TLE details & history
Last TLE update: 14 hours ago

TLE from 14 hours ago
0 RASSVET-3 16
1 68375U 26061R   26169.61434243  .00026631  00000-0  28936-3 0  9994
2 68375  82.2927  11.2690 0000526 250.0800 110.0401 15.63320990 13748
Epoch: 2026-06-18T14:44Z
TLE epoch observation values (Epoch: 2026-06-18T14:44:39.185Z)
Latitude
-0.00005°
Longitude
-116.74942°
Altitude
381.334 km
Speed
7.681 km/s
True Right ascension
00h 45m 04s
True Declination
0° 00' 00"
Sunlit
Object was in daylight at epoch
Visualization orbit readout
Latitude
Unknown
Longitude
Unknown
Altitude
Unknown
Speed
Unknown
Apparent Right ascension
Unknown
Apparent Declination
Unknown
Sunlit
N/A
Visualization observer readout
Local Sidereal Time
15:04:38
Azimuth
Unknown
Elevation
Unknown
Doppler factor
Unknown
Orbital elements
Apogee altitude
375.349 km
Perigee altitude
374.638 km
Semi-major axis
6,753.131 km
Eccentricity
0.00005
Inclination
82.2927°
RAAN
11.269°
Arg. of periapsis
250.08°
True anomaly
110.04576°
Mean anomaly
110.0401°
Eccentric anomaly
110.04293°
Mean motion
3.91098 °/min
Orbital period
92.05 mins
BSTAR
0.00028936
Loading maneuver chart data...
Computing Atmospheric mass density...
Loading historical data...
Loading historical data...
Loading historical data...
Loading historical data...
Loading historical data...
Loading historical data...
Loading historical data...

Documentation

Showing up to 5 results
|